Mount Pleasant, IA

10:48 AM CDT on August 30, 2016 (GMT -0500)
Mount Pleasant Municipal

Weather History for KMPZ - February, 2013

Change the Weather History Date:

Thursday, February 28, 2013

  Actual Average Record
Temperature  
Mean Temperature 36 °F -  
Max Temperature 39 °F 46 °F 66 °F (1972)
Min Temperature 32 °F 24 °F -8 °F (1962)
Degree Days  
Heating Degree Days 30    
Moisture  
Dew Point 27 °F    
Average Humidity 72    
Maximum Humidity 80    
Minimum Humidity 60    
Precipitation  
Precipitation 0.00 in - - ()
Sea Level Pressure  
Sea Level Pressure 30.03 in    
Wind  
Wind Speed 10 mph (NW)    
Max Wind Speed 14 mph    
Max Gust Speed 18 mph    
Visibility 7 miles    
Events Snow    
Averages and records for this station are not official NWS values.
T = Trace of Precipitation, MM = Missing Value Source: NWS Daily Summary

Daily Weather History Graph

Daily Weather History Graph

Search for Another Location

Airport or City:

Trip Planner

Search our weather history database for the weather conditions in past years. The results will help you decide how hot, cold, wet, or windy it might be!

Date:

Astronomy

Feb. 28, 2013 Rise Set
Actual Time 6:41 AM CST 5:56 PM CST
Civil Twilight 6:13 AM CST 6:23 PM CST
Nautical Twilight 5:41 AM CST 6:55 PM CST
Astronomical Twilight 5:10 AM CST 7:27 PM CST
Moon 9:25 PM CST (2/28) 7:49 AM CST (2/28)
Length of Visible Light 12h 10m
Length of Day
11h 15m
Waning Gibbous, 90% of the Moon is Illuminated
Feb 28
Waning Gibbous
Mar 4
Last Quarter
Mar 11
New
Mar 19
First Quarter
Mar 27
Full

Hourly Weather History & Observations

Time (CST) Temp. Windchill Dew Point Humidity Pressure Visibility Wind Dir Wind Speed Gust Speed Precip Events Conditions
12:15 AM 36.1 °F 29.3 °F 30.2 °F 79% 29.88 in 7.0 mi NW 9.2 mph - N/A Snow Light Snow
12:35 AM 36.1 °F 28.2 °F 30.0 °F 78% 29.88 in 7.0 mi NW 11.5 mph 17.3 mph N/A   Overcast
12:55 AM 36.1 °F 28.7 °F 29.8 °F 78% 29.89 in 10.0 mi NW 10.4 mph 16.1 mph N/A   Overcast
1:15 AM 36.1 °F 29.9 °F 29.7 °F 77% 29.89 in 10.0 mi WNW 8.1 mph - N/A   Overcast
1:35 AM 36.1 °F 28.7 °F 29.7 °F 77% 29.90 in 10.0 mi NW 10.4 mph - N/A   Overcast
1:55 AM 36.1 °F 28.7 °F 29.3 °F 76% 29.90 in 10.0 mi NW 10.4 mph 18.4 mph N/A   Overcast
2:15 AM 36.1 °F 28.7 °F 29.3 °F 76% 29.90 in 10.0 mi NW 10.4 mph - N/A   Overcast
2:35 AM 36.1 °F 28.2 °F 29.1 °F 76% 29.90 in 10.0 mi NW 11.5 mph 17.3 mph N/A   Overcast
2:55 AM 36.0 °F 29.0 °F 29.1 °F 76% 29.90 in 10.0 mi WNW 9.2 mph - N/A   Overcast
3:15 AM 35.8 °F 28.8 °F 29.1 °F 77% 29.90 in 10.0 mi WNW 9.2 mph 17.3 mph N/A   Overcast
3:55 AM 35.2 °F 27.6 °F 28.4 °F 76% 29.91 in 10.0 mi WNW 10.4 mph - N/A   Overcast
4:15 AM 34.7 °F 26.9 °F 28.0 °F 77% 29.92 in 7.0 mi WNW 10.4 mph - N/A   Overcast
4:35 AM 34.7 °F 27.5 °F 27.5 °F 75% 29.93 in 10.0 mi NW 9.2 mph - N/A   Overcast
4:55 AM 34.7 °F 26.9 °F 27.5 °F 75% 29.93 in 10.0 mi NW 10.4 mph 17.3 mph N/A   Overcast
5:15 AM 34.7 °F 26.9 °F 27.5 °F 75% 29.94 in 10.0 mi WNW 10.4 mph - N/A   Overcast
5:35 AM 34.3 °F 25.9 °F 27.3 °F 76% 29.95 in 10.0 mi NW 11.5 mph 17.3 mph N/A   Overcast
5:55 AM 34.2 °F 26.2 °F 27.0 °F 75% 29.96 in 10.0 mi NW 10.4 mph 16.1 mph N/A   Overcast
6:15 AM 34.0 °F 26.0 °F 26.6 °F 74% 29.96 in 10.0 mi WNW 10.4 mph - N/A   Overcast
6:35 AM 32.9 °F 25.3 °F 25.9 °F 75% 29.97 in 7.0 mi WNW 9.2 mph - N/A   Overcast
6:55 AM 32.9 °F 25.3 °F 25.7 °F 75% 29.98 in 7.0 mi WNW 9.2 mph - N/A   Overcast
7:15 AM 32.9 °F 24.7 °F 25.7 °F 75% 29.98 in 7.0 mi WNW 10.4 mph - N/A   Overcast
7:35 AM 33.1 °F 25.5 °F 25.7 °F 74% 29.99 in 7.0 mi WNW 9.2 mph - N/A   Overcast
8:15 AM 33.8 °F 25.3 °F 25.5 °F 72% 30.01 in 5.0 mi WNW 11.5 mph - N/A Snow Light Snow
8:35 AM 33.8 °F 26.4 °F 25.7 °F 72% 30.01 in 3.0 mi NW 9.2 mph - N/A Snow Light Snow
8:55 AM 34.3 °F 26.5 °F 25.7 °F 71% 30.01 in 5.0 mi NW 10.4 mph 17.3 mph N/A   Haze
9:15 AM 35.1 °F 25.9 °F 25.9 °F 69% 30.02 in 3.0 mi NW 13.8 mph - N/A Snow Light Snow
9:35 AM 35.2 °F 27.1 °F 26.2 °F 70% 30.03 in 3.0 mi NW 11.5 mph - N/A Snow Light Snow
9:55 AM 35.8 °F 28.8 °F 26.6 °F 69% 30.03 in 4.0 mi NW 9.2 mph - N/A Snow Light Snow
10:15 AM 36.1 °F 29.3 °F 26.8 °F 69% 30.04 in 7.0 mi NW 9.2 mph - N/A   Overcast
10:35 AM 36.5 °F 29.7 °F 26.6 °F 67% 30.04 in 7.0 mi NW 9.2 mph - N/A   Overcast
10:55 AM 36.9 °F 29.6 °F 26.2 °F 65% 30.05 in 7.0 mi NW 10.4 mph - N/A   Overcast
11:15 AM 36.9 °F 29.6 °F 26.4 °F 66% 30.05 in 7.0 mi NW 10.4 mph - N/A   Overcast
11:35 AM 37.4 °F 30.3 °F 26.6 °F 65% 30.05 in 7.0 mi NW 10.4 mph - N/A   Overcast
11:55 AM 37.0 °F 29.8 °F 26.8 °F 66% 30.06 in 7.0 mi NW 10.4 mph - N/A   Overcast
12:15 PM 37.4 °F 30.3 °F 26.4 °F 65% 30.06 in 10.0 mi NW 10.4 mph 16.1 mph N/A   Overcast
12:35 PM 37.6 °F 31.6 °F 26.2 °F 64% 30.06 in 10.0 mi NW 8.1 mph - N/A   Overcast
12:55 PM 37.8 °F 31.8 °F 26.4 °F 64% 30.06 in 10.0 mi NW 8.1 mph - N/A   Overcast
1:15 PM 37.9 °F 32.1 °F 26.2 °F 63% 30.06 in 10.0 mi NW 8.1 mph - N/A   Overcast
1:35 PM 38.3 °F 31.9 °F 26.2 °F 62% 30.06 in 10.0 mi WNW 9.2 mph - N/A   Overcast
1:55 PM 38.3 °F 32.5 °F 26.6 °F 63% 30.06 in 10.0 mi NW 8.1 mph - N/A   Overcast
2:15 PM 38.7 °F 31.8 °F 26.6 °F 62% 30.06 in 10.0 mi NW 10.4 mph - N/A   Overcast
2:35 PM 38.7 °F 32.4 °F 26.8 °F 62% 30.06 in 10.0 mi NW 9.2 mph - N/A   Overcast
2:55 PM 39.0 °F 32.8 °F 26.6 °F 61% 30.06 in 10.0 mi WNW 9.2 mph - N/A   Overcast
3:15 PM 39.2 °F 34.2 °F 26.4 °F 60% 30.07 in 10.0 mi NW 6.9 mph - N/A   Overcast
3:35 PM 39.0 °F 32.8 °F 26.2 °F 60% 30.07 in 10.0 mi NW 9.2 mph - N/A   Overcast
3:55 PM 38.7 °F 31.4 °F 25.7 °F 60% 30.07 in 10.0 mi NW 11.5 mph - N/A   Overcast
4:15 PM 38.3 °F 30.9 °F 25.9 °F 61% 30.08 in 10.0 mi NW 11.5 mph - N/A   Overcast
4:35 PM 38.1 °F 32.3 °F 26.4 °F 63% 30.08 in 10.0 mi NW 8.1 mph - N/A   Overcast
4:55 PM 37.4 °F 31.4 °F 26.6 °F 65% 30.08 in 4.0 mi NW 8.1 mph - N/A Snow Light Snow
5:15 PM 36.9 °F 30.1 °F 27.1 °F 68% 30.08 in 4.0 mi NW 9.2 mph - N/A Snow Light Snow
5:35 PM 36.5 °F 29.7 °F 27.1 °F 69% 30.09 in 4.0 mi NW 9.2 mph - N/A Snow Light Snow
5:55 PM 35.8 °F 28.8 °F 27.7 °F 72% 30.10 in 2.5 mi WNW 9.2 mph - N/A Snow Light Snow
6:15 PM 35.2 °F 28.8 °F 28.2 °F 76% 30.10 in 4.0 mi NW 8.1 mph - N/A Snow Light Snow
6:35 PM 34.9 °F 27.1 °F 27.9 °F 76% 30.11 in 4.0 mi NW 10.4 mph - N/A Snow Light Snow
6:55 PM 34.7 °F 28.8 °F 28.4 °F 78% 30.11 in 4.0 mi NW 6.9 mph - N/A Snow Light Snow
7:15 PM 34.7 °F 28.8 °F 28.9 °F 79% 30.11 in 3.0 mi WNW 6.9 mph - N/A Snow Light Snow
7:35 PM 34.3 °F 27.7 °F 28.4 °F 79% 30.11 in 4.0 mi WNW 8.1 mph - N/A Snow Light Snow
8:15 PM 33.8 °F 27.0 °F 27.5 °F 78% 30.11 in 5.0 mi WNW 8.1 mph - N/A Snow Light Snow
8:35 PM 33.4 °F 25.9 °F 27.1 °F 78% 30.11 in 4.0 mi WNW 9.2 mph - N/A Snow Light Snow
8:55 PM 33.3 °F 25.7 °F 27.1 °F 78% 30.11 in 2.5 mi NW 9.2 mph - N/A Snow Light Snow
9:15 PM 32.9 °F 25.9 °F 27.0 °F 79% 30.11 in 3.0 mi NW 8.1 mph - N/A Snow Light Snow
9:35 PM 32.9 °F 25.9 °F 27.0 °F 79% 30.12 in 5.0 mi NW 8.1 mph - N/A Snow Light Snow
9:55 PM 32.9 °F 26.7 °F 26.6 °F 78% 30.12 in 4.0 mi NW 6.9 mph - N/A Snow Light Snow
10:15 PM 32.5 °F 24.8 °F 26.6 °F 79% 30.12 in 4.0 mi NW 9.2 mph - N/A Snow Light Snow
10:35 PM 32.4 °F 26.0 °F 26.6 °F 79% 30.12 in 3.0 mi NW 6.9 mph - N/A Snow Light Snow
10:55 PM 32.2 °F 25.8 °F 26.4 °F 79% 30.12 in 3.0 mi NW 6.9 mph - N/A Snow Light Snow
11:15 PM 32.2 °F 25.0 °F 26.4 °F 79% 30.11 in 4.0 mi NW 8.1 mph - N/A Snow Light Snow
11:35 PM 32.0 °F 25.6 °F 26.4 °F 80% 30.11 in 3.0 mi NW 6.9 mph - N/A Snow Light Snow
11:55 PM 32.0 °F 25.6 °F 26.4 °F 80% 30.11 in 2.5 mi NW 6.9 mph - N/A Snow Light Snow